Stations météo

réclame
Mon MeteoGroup
Aubenas, France (7570): Température de l'air & dewpoint: 19.08.2019 07:00:00 - 25.08.2019 07:00:00 (CEST)Aubenas, France (7570): Température de l'air 5cm: 19.08.2019 07:00:00 - 25.08.2019 07:00:00 (CEST)Aubenas, France (7570): Température de l'air -20cm & Température de l'air -100cm: 19.08.2019 07:00:00 - 25.08.2019 07:00:00 (CEST)Aubenas, France (7570): Vitesse du vent & gusts: 19.08.2019 07:00:00 - 25.08.2019 07:00:00 (CEST)Aubenas, France (7570): Direction du vent: 19.08.2019 07:00:00 - 25.08.2019 07:00:00 (CEST)Aubenas, France (7570): reduced air pressure: 19.08.2019 07:00:00 - 25.08.2019 07:00:00 (CEST)Aubenas, France (7570): visibility: 19.08.2019 07:00:00 - 25.08.2019 07:00:00 (CEST)Aubenas, France (7570): Quantités de précipitations: 19.08.2019 07:00:00 - 25.08.2019 07:00:00 (CEST)
Date & Time tt [°C] td [°C] tt 5cm [°C] tt -20cm [°C] tt -100cm [°C] ff [km/h] ff [knt] fx [km/h] fx [knt] dd ppp [hPa] vv [km] rr [mm]
25.08.2019 07:00:00 17,2 13,1 14,7 25,2 23,0 4 2 8 5 N 1019,2 20 0,0
25.08.2019 06:00:00 17,1 12,8 15,1 25,2 23,0 3 1 6 3 NNE 1019,3 20 0,0
25.08.2019 05:00:00 17,5 12,8 16,0 25,2 23,0 3 2 9 5 NNE 1019,1 20 0,0
25.08.2019 04:00:00 18,9 13,3 16,7 25,1 23,0 6 3 9 5 NNE 1019,1 20 0,0
25.08.2019 03:00:00 19,3 12,8 17,0 25,0 23,0 4 2 6 3 NNE 1019,3 20 0,0
25.08.2019 02:00:00 20,9 13,1 18,8 25,0 23,0 3 1 12 7 NNW 1019,0 20 0,0
25.08.2019 01:00:00 22,0 13,1 19,2 24,9 23,0 7 4 11 6 NNE 1018,8 20 0,0
25.08.2019 00:00:00 22,7 13,2 19,3 24,9 23,0 0 0 8 4 N 1018,7 20 0,0
24.08.2019 23:00:00 23,8 13,1 21,7 24,8 23,0 4 2 9 5 ENE 1018,4 20 0,0
24.08.2019 22:00:00 25,7 12,9 24,6 24,8 23,0 9 5 17 9 S 1017,6 20 0,0
24.08.2019 21:00:00 27,2 12,4 26,5 24,7 23,0 13 7 26 14 S 1016,9 20 0,0
24.08.2019 20:00:00 29,8 12,7 29,8 24,6 23,0 16 9 29 15 SSW 1016,4 20 0,0
24.08.2019 19:00:00 32,3 8,5 35,6 24,6 23,0 12 6 19 10 SE 1015,9 20 0,0
24.08.2019 18:00:00 33,1 7,8 35,0 24,6 23,0 4 2 17 9 E 1016,2 19 0,0
24.08.2019 17:00:00 34,2 8,0 39,2 24,6 23,0 5 3 20 11 SSW 1016,4 20 0,0
24.08.2019 16:00:00 33,6 7,5 39,4 24,6 23,0 10 5 22 12 WSW 1016,9 20 0,0
24.08.2019 15:00:00 32,1 9,0 38,7 24,6 23,0 9 5 31 17 S 1017,5 20 0,0
24.08.2019 14:00:00 31,0 9,8 37,2 24,7 23,0 10 5 23 12 SSW 1018,2 20 0,0
24.08.2019 13:00:00 29,9 8,9 35,8 24,7 23,0 9 5 23 13 S 1018,9 20 0,0
24.08.2019 12:00:00 28,0 12,4 34,0 24,7 23,0 7 4 15 8 SSW 1019,7 20 0,0
24.08.2019 11:00:00 26,3 13,8 31,3 24,7 23,0 5 3 11 6 S 1020,4 20 0,0
24.08.2019 10:00:00 24,7 12,3 27,1 24,7 23,0 2 1 6 4 N 1020,7 20 0,0
24.08.2019 09:00:00 21,1 12,2 21,3 24,7 23,0 0 0 4 2 N 1021,0 20 0,0
24.08.2019 08:00:00 17,6 12,1 13,4 24,7 23,0 0 0 5 3 N 1021,3 20 0,0
24.08.2019 07:00:00 15,1 11,3 12,4 24,7 23,0 5 3 7 4 NNE 1021,4 20 0,0
24.08.2019 06:00:00 16,4 11,5 13,8 24,7 23,0 4 2 10 6 NNE 1021,3 20 0,0
24.08.2019 05:00:00 16,4 11,5 14,4 24,6 23,1 5 3 9 5 NE 1021,5 20 0,0
24.08.2019 04:00:00 16,9 11,4 14,5 24,6 23,1 2 1 9 5 E 1021,7 20 0,0
24.08.2019 03:00:00 18,0 11,5 15,1 24,5 23,0 0 0 13 7 N 1021,5 20 0,0
24.08.2019 02:00:00 18,7 12,2 16,6 24,5 23,1 5 3 9 5 NE 1021,6 20 0,0
24.08.2019 01:00:00 20,9 11,8 17,3 24,4 23,1 0 0 4 2 N 1021,3 20 0,0
24.08.2019 00:00:00 21,1 11,7 17,5 24,3 23,1 2 1 5 3 NW 1021,2 20 0,0
23.08.2019 23:00:00 22,1 11,8 18,9 24,3 23,1 3 2 5 3 SW 1021,0 20 0,0
23.08.2019 22:00:00 23,8 11,8 20,6 24,2 23,0 0 0 18 10 N 1020,0 20 0,0
23.08.2019 21:00:00 25,6 11,4 24,8 24,1 23,0 12 6 26 14 NE 1019,2 20 0,0
23.08.2019 20:00:00 27,8 10,0 28,3 24,1 23,1 14 8 27 14 ENE 1018,5 20 0,0
23.08.2019 19:00:00 30,6 8,9 33,3 24,1 23,1 15 8 27 14 ESE 1017,8 20 0,0
23.08.2019 18:00:00 31,6 9,8 36,5 24,1 23,1 16 8 26 14 SE 1017,7 20 0,0
23.08.2019 17:00:00 32,3 7,9 38,3 24,0 23,0 12 6 25 14 E 1017,7 20 0,0
23.08.2019 16:00:00 32,5 7,3 38,7 24,1 23,1 11 6 30 16 ENE 1017,9 20 0,0
23.08.2019 15:00:00 31,9 6,9 38,1 24,1 23,1 10 6 27 15 NE 1018,7 19 0,0
23.08.2019 14:00:00 30,6 7,7 36,3 24,1 23,1 11 6 27 15 NE 1019,4 20 0,0
23.08.2019 13:00:00 29,7 9,2 35,2 24,1 23,1 13 7 31 17 NNE 1020,1 20 0,0
23.08.2019 12:00:00 28,1 8,9 33,2 24,1 23,1 13 7 31 17 NE 1020,4 19 0,0
23.08.2019 11:00:00 27,3 9,2 31,9 24,2 23,1 16 9 31 17 NE 1020,6 20 0,0
23.08.2019 10:00:00 25,7 11,1 27,9 24,2 23,1 11 6 22 12 NNE 1021,1 20 0,0
23.08.2019 09:00:00 23,3 8,9 23,2 24,2 23,1 10 5 17 9 NNE 1021,5 20 0,0
23.08.2019 08:00:00 20,6 9,5 16,3 24,2 23,1 8 5 19 10 NNE 1021,7 20 0,0
23.08.2019 07:00:00 17,7 10,8 16,2 24,2 23,1 10 5 23 12 NNE 1021,8 20 0,0
23.08.2019 06:00:00 19,0 12,0 16,3 24,2 23,1 11 6 18 10 NNE 1021,7 20 0,0
23.08.2019 05:00:00 19,3 9,5 17,0 24,1 23,1 10 6 17 9 N 1021,7 20 0,0
23.08.2019 04:00:00 19,0 10,0 16,4 24,1 23,1 10 6 16 9 NNE 1021,8 20 0,0
23.08.2019 03:00:00 18,7 10,0 16,6 24,1 23,2 5 3 17 9 NE 1022,0 20 0,0
23.08.2019 02:00:00 19,2 10,2 15,9 24,0 23,2 8 4 15 8 NNE 1022,1 20 0,0
23.08.2019 01:00:00 20,1 10,5 17,9 23,9 23,1 10 6 16 9 NNE 1022,2 20 0,0
23.08.2019 00:00:00 20,2 12,9 17,9 23,9 23,2 5 3 14 8 NE 1022,6 20 0,0
22.08.2019 23:00:00 21,0 13,4 19,5 23,8 23,1 8 4 23 13 NNE 1022,8 20 0,0
22.08.2019 22:00:00 22,4 13,2 21,2 23,8 23,2 10 6 23 12 NNE 1022,8 20 0,0
22.08.2019 21:00:00 23,7 12,7 22,8 23,8 23,2 9 5 31 17 NE 1021,9 20 0,0
22.08.2019 20:00:00 26,1 12,9 26,9 23,8 23,2 18 10 34 18 NNE 1020,5 20 0,0
22.08.2019 19:00:00 27,7 13,2 29,3 23,7 23,2 20 11 35 19 ENE 1019,9 20 0,0
22.08.2019 18:00:00 29,4 11,9 33,5 23,7 23,2 15 8 37 20 ENE 1019,4 20 0,0
22.08.2019 17:00:00 29,5 11,5 34,3 23,7 23,2 21 12 31 17 E 1019,8 20 0,0
22.08.2019 16:00:00 29,4 11,0 35,8 23,7 23,2 19 11 31 17 E 1019,7 20 0,0
22.08.2019 15:00:00 28,9 11,0 34,0 23,8 23,2 18 10 34 18 E 1020,2 20 0,0
22.08.2019 14:00:00 28,4 10,6 35,1 23,8 23,2 19 10 32 17 E 1020,7 20 0,0
22.08.2019 13:00:00 27,6 9,4 32,1 23,8 23,2 14 8 26 14 ENE 1021,1 20 0,0
22.08.2019 12:00:00 25,8 8,3 30,9 23,9 23,2 14 8 29 16 NE 1021,7 20 0,0
22.08.2019 11:00:00 24,4 9,5 26,1 23,9 23,3 16 9 31 17 NNE 1022,0 20 0,0
22.08.2019 10:00:00 21,9 10,4 21,9 23,9 23,2 16 8 29 16 NNE 1021,9 20 0,0
22.08.2019 09:00:00 19,9 10,9 18,8 24,0 23,3 11 6 19 10 NE 1021,9 20 0,0
22.08.2019 08:00:00 18,2 10,8 16,1 23,9 23,3 8 5 15 8 NNE 1021,8 20 0,0
22.08.2019 07:00:00 17,7 10,6 16,2 24,0 23,3 9 5 17 9 NNE 1021,4 20 0,0
22.08.2019 06:00:00 17,5 10,8 16,1 24,0 23,3 9 5 15 8 NNE 1021,0 20 0,0
22.08.2019 05:00:00 17,2 11,2 15,7 23,9 23,3 9 5 14 8 NNE 1020,9 20 0,0
22.08.2019 04:00:00 18,0 11,3 16,8 24,0 23,3 7 4 17 9 NNE 1021,0 20 0,0
22.08.2019 03:00:00 18,8 11,4 17,7 23,9 23,3 8 4 18 10 NNE 1021,3 20 0,0
22.08.2019 02:00:00 19,1 11,1 18,2 24,0 23,3 12 6 17 9 N 1021,5 20 0,0
22.08.2019 01:00:00 19,2 11,0 18,4 23,9 23,3 10 5 16 9 N 1021,9 20 0,0
22.08.2019 00:00:00 19,5 10,5 18,4 24,0 23,3 10 6 16 9 N 1021,8 20 0,0
21.08.2019 23:00:00 20,0 11,0 19,0 23,9 23,3 9 5 24 13 N 1021,7 20 0,0
21.08.2019 22:00:00 20,9 11,8 20,2 23,9 23,3 15 8 40 22 N 1021,7 20 0,0
21.08.2019 21:00:00 21,2 12,3 20,7 23,9 23,3 17 9 36 19 NNE 1021,1 20 0,0
21.08.2019 20:00:00 23,1 12,7 23,9 23,9 23,3 17 9 35 19 NNE 1020,1 20 0,0
21.08.2019 19:00:00 25,3 11,8 26,8 24,0 23,3 17 9 36 19 NNE 1019,3 20 0,0
21.08.2019 18:00:00 25,7 11,1 29,7 24,0 23,3 23 12 44 24 N 1019,7 20 0,0
21.08.2019 17:00:00 26,6 11,9 29,2 24,0 23,3 23 12 40 21 NE 1019,4 20 0,0
21.08.2019 16:00:00 26,9 10,1 31,2 24,1 23,3 21 11 40 21 NE 1019,7 20 0,0
21.08.2019 15:00:00 27,4 9,2 30,5 24,2 23,3 20 11 42 23 N 1020,0 20 0,0
21.08.2019 14:00:00 26,2 8,2 30,0 24,3 23,3 23 12 49 26 NNE 1020,4 20 0,0
21.08.2019 13:00:00 25,3 7,9 28,9 24,3 23,4 27 15 55 30 NNE 1020,5 20 0,0
21.08.2019 12:00:00 23,9 7,5 26,9 24,4 23,4 27 15 49 27 NE 1021,1 20 0,0
21.08.2019 11:00:00 23,0 7,5 26,2 24,5 23,3 26 14 47 26 NNE 1021,6 20 0,0
21.08.2019 10:00:00 21,7 7,1 23,3 24,6 23,3 19 11 39 21 NNE 1022,0 20 0,0
21.08.2019 09:00:00 19,9 7,3 19,9 24,7 23,4 18 10 30 16 NE 1022,3 20 0,0
21.08.2019 08:00:00 17,9 7,3 15,2 24,8 23,4 16 9 26 14 NE 1022,4 20 0,0
21.08.2019 07:00:00 16,1 6,2 14,6 24,9 23,4 13 7 27 14 N 1022,4 20 0,0
21.08.2019 06:00:00 16,5 5,7 15,3 25,0 23,4 15 8 37 20 NNE 1022,4 20 0,0
21.08.2019 05:00:00 16,7 5,3 15,5 25,0 23,4 18 10 35 19 N 1022,6 20 0,0
21.08.2019 04:00:00 17,1 6,0 15,7 25,1 23,4 19 10 42 23 N 1022,9 20 0,0
21.08.2019 03:00:00 16,9 7,8 15,4 25,1 23,4 13 7 31 17 NNE 1023,1 20 0,0
21.08.2019 02:00:00 16,9 7,8 15,7 25,2 23,4 17 9 36 19 NNE 1023,4 20 0,0
21.08.2019 01:00:00 17,2 7,8 16,0 25,2 23,3 20 11 45 24 N 1023,8 20 0,0
21.08.2019 00:00:00 17,1 8,0 15,8 25,3 23,4 21 11 44 24 N 1023,8 20 0,0
20.08.2019 23:00:00 17,3 8,7 16,4 25,4 23,4 21 11 42 23 N 1024,1 20 0,0
20.08.2019 22:00:00 17,7 8,8 16,7 25,4 23,4 21 12 38 20 N 1023,9 20 0,0
20.08.2019 21:00:00 18,1 9,2 17,2 25,5 23,3 19 10 40 22 N 1023,8 20 0,0
20.08.2019 20:00:00 18,3 9,9 18,1 25,5 23,3 27 15 49 27 N 1023,6 20 0,0
20.08.2019 19:00:00 19,5 10,5 20,6 25,6 23,3 23 12 55 30 N 1023,1 20 0,0
20.08.2019 18:00:00 20,1 13,1 19,8 25,7 23,4 22 12 41 22 NNE 1023,0 20 0,0
20.08.2019 17:00:00 18,1 13,0 16,1 25,7 23,3 19 10 46 25 N 1023,8 20 0,2
20.08.2019 16:00:00 17,2 14,5 16,0 25,8 23,4 11 6 24 13 N 1023,4 20 0,2
20.08.2019 15:00:00 16,8 14,1 15,5 25,8 23,4 16 9 28 15 N 1023,5 20 0,8
20.08.2019 14:00:00 17,2 13,3 15,8 25,9 23,3 15 8 28 15 NNW 1023,1 20 0,2
20.08.2019 13:00:00 18,1 12,8 18,0 25,9 23,3 15 8 26 14 NNW 1022,7 20 0,0
20.08.2019 12:00:00 18,4 13,0 18,2 26,0 23,4 14 7 26 14 NNE 1022,2 20 0,0
20.08.2019 11:00:00 17,4 13,7 16,5 26,0 23,3 7 4 21 11 NNE 1021,6 20 0,0
20.08.2019 10:00:00 16,5 13,8 16,1 26,1 23,4 11 6 23 13 NNE 1020,8 20 0,0
20.08.2019 09:00:00 15,9 13,9 15,2 26,1 23,4 11 6 27 15 NNE 1020,3 20 0,2
20.08.2019 08:00:00 15,6 14,1 15,0 26,1 23,3 10 5 22 12 NNE 1020,5 20 0,8
20.08.2019 07:00:00 15,9 14,1 15,1 26,1 23,4 8 4 26 14 NNE 1020,6 20 0,6
20.08.2019 06:00:00 16,7 14,3 15,2 26,1 23,4 13 7 21 11 N 1020,5 20 0,8
20.08.2019 05:00:00 17,7 12,6 15,4 26,2 23,3 5 3 27 15 NNE 1020,5 20 0,2
20.08.2019 04:00:00 19,1 12,1 15,8 26,1 23,3 9 5 33 18 NNE 1020,2 20 0,0
20.08.2019 03:00:00 20,3 10,7 20,2 26,2 23,4 14 7 31 17 NNE 1019,9 20 0,0
20.08.2019 02:00:00 20,5 10,6 20,1 26,2 23,3 16 9 31 17 NNE 1020,1 20 0,0
20.08.2019 01:00:00 20,2 12,9 20,1 26,2 23,3 13 7 31 17 NNE 1020,2 20 0,0
20.08.2019 00:00:00 20,5 13,2 20,5 26,2 23,3 14 8 39 21 NE 1020,6 20 0,0
19.08.2019 23:00:00 20,8 14,0 20,9 26,1 23,3 17 9 30 16 NNE 1020,5 20 0,0
19.08.2019 22:00:00 21,2 14,4 21,2 26,1 23,3 13 7 27 15 NNE 1019,5 20 0,0
19.08.2019 21:00:00 21,7 14,8 21,7 26,1 23,3 15 8 35 19 NNE 1019,0 10 0,0
19.08.2019 20:00:00 22,2 15,5 21,4 26,1 23,3 14 7 27 15 NE 1018,6 20 0,0
19.08.2019 19:00:00 23,8 15,6 24,2 26,1 23,4 13 7 26 14 ENE 1018,0 20 0,0
19.08.2019 18:00:00 24,5 16,2 22,5 26,1 23,3 12 6 23 12 E 1017,5 20 0,0
19.08.2019 17:00:00 26,5 15,8 27,7 26,1 23,3 4 2 21 12 SSE 1017,1 20 0,0
19.08.2019 16:00:00 27,5 15,5 31,4 26,1 23,3 11 6 19 10 SSE 1016,8 20 0,0
19.08.2019 15:00:00 26,8 15,5 32,0 26,2 23,3 7 4 17 9 S 1017,3 20 0,0
19.08.2019 14:00:00 26,0 16,0 29,2 26,2 23,3 6 3 16 9 SSW 1017,3 20 0,0
19.08.2019 13:00:00 25,3 16,2 29,6 26,2 23,3 5 3 13 7 WNW 1017,5 20 0,0
19.08.2019 12:00:00 24,6 16,6 27,1 26,3 23,3 3 2 10 6 NW 1017,8 20 0,0
19.08.2019 11:00:00 22,8 17,7 23,4 26,3 23,3 4 2 11 6 N 1017,9 20 0,0
19.08.2019 10:00:00 21,1 18,7 20,5 26,3 23,3 3 1 6 3 N 1018,1 20 0,0
19.08.2019 09:00:00 19,9 18,7 19,7 26,3 23,3 5 3 10 5 SE 1017,9 18 0,2
19.08.2019 08:00:00 19,9 18,9 19,4 26,3 23,3 5 3 13 7 N 1017,6 20 0,0
19.08.2019 07:00:00 20,0 18,7 19,4 26,3 23,3 5 3 11 6 NNE 1017,1 17 0,2

tt = Température de l'air
td = dewpoint
tt 5cm = Température de l'air 5cm
tt -20cm = Température de l'air -20cm
tt -100cm = Température de l'air -100cm
ff = Vitesse du vent
fx = gusts
dd = Direction du vent
ppp = reduced air pressure
vv = visibility
rr = Quantités de précipitations

stations d'obs. à proximité